CW0783 Weather Reports


time (UTC)temp
C
wind
direction
speed
KPH
gust
KPH
rain 1hr
cm
rain 24hr
cm
rain mn
cm
humidity
%
barometer
mb
20260906100231 20 73 0.0 0.0 0.00 0.00 0.00 97 1018.9
20260906095727 20 92 0.0 0.0 0.00 0.00 0.00 97 1018.7
20260906095221 20 83 0.0 0.0 0.00 0.00 0.00 97 1018.7
20260906094720 20 109 0.0 0.0 0.00 0.00 0.00 97 1018.5
20260906094216 20 94 0.0 0.0 0.00 0.00 0.00 97 1018.8
20260906093712 20 112 0.0 0.0 0.00 0.00 0.00 97 1018.8
20260906093208 20 113 0.0 0.0 0.00 0.00 0.00 98 1018.5
20260906092702 20 113 0.0 0.0 0.00 0.00 0.00 98 1018.6
20260906092201 20 113 0.0 0.0 0.00 0.00 0.00 97 1018.5
20260906091658 20 113 0.0 0.0 0.00 0.00 0.00 98 1018.4
20260906091154 19 113 0.0 0.0 0.00 0.00 0.00 98 1018.1
20260906090650 19 109 0.0 0.0 0.00 0.00 0.00 98 1018.6
20260906090149 18 96 0.0 0.0 0.00 0.00 0.00 97 1018.5
20260906085649 18 96 0.0 0.0 0.00 0.00 0.00 97 1018.6
20260906085149 18 96 0.0 0.0 0.00 0.00 0.00 97 1018.5
20260906084649 18 96 0.0 0.0 0.00 0.00 0.00 97 1018.4
20260906084148 18 96 0.0 0.0 0.00 0.00 0.00 97 1018.7
20260906083643 18 94 0.0 0.0 0.00 0.00 0.00 97 1018.4
20260906083139 18 94 0.0 0.0 0.00 0.00 0.00 97 1018.7
20260906082634 18 94 0.0 0.0 0.00 0.00 0.00 97 1018.6
20260906082129 18 94 0.0 0.0 0.00 0.00 0.00 97 1018.6
20260906081625 18 94 0.0 0.0 0.00 0.00 0.00 97 1018.5
20260906081120 18 94 0.0 0.0 0.00 0.00 0.00 96 1018.5
20260906080617 18 94 0.0 0.0 0.00 0.00 0.00 97 1018.5
20260906080113 18 94 0.0 0.0 0.00 0.00 0.00 96 1018.8
20260906075612 18 94 0.0 0.0 0.00 0.00 0.00 96 1018.6
20260906075107 18 94 0.0 0.0 0.00 0.00 0.00 96 1018.4
20260906074603 19 94 0.0 0.0 0.00 0.00 0.00 96 1018.5
20260906074101 19 94 0.0 0.0 0.00 0.00 0.00 96 1018.5
20260906073556 19 94 0.0 0.0 0.00 0.00 0.00 96 1018.8
20260906073052 19 94 0.0 0.0 0.00 0.00 0.00 96 1018.6
20260906072552 19 94 0.0 0.0 0.00 0.00 0.00 96 1018.3
20260906072049 20 94 0.0 0.0 0.00 0.00 0.00 96 1018.4
20260906071545 20 94 0.0 0.0 0.00 0.00 0.00 96 1018.5
20260906071039 20 94 0.0 0.0 0.00 0.00 0.00 96 1018.5
20260906070536 20 94 0.0 0.0 0.00 0.00 0.00 95 1018.3
20260906070031 20 94 0.0 0.0 0.00 0.00 0.00 95 1018.5
20260906065530 20 94 0.0 0.0 0.00 0.00 0.00 95 1018.7
20260906065027 20 94 0.0 0.0 0.00 0.00 0.00 95 1018.4
20260906064523 20 94 0.0 0.0 0.00 0.00 0.00 94 1018.6
20260906064022 20 93 0.0 0.0 0.00 0.00 0.00 94 1018.3
20260906063518 20 93 0.0 0.0 0.00 0.00 0.00 94 1018.5
20260906063014 20 93 0.0 0.0 0.00 0.00 0.00 93 1018.5
20260906062509 20 93 0.0 0.0 0.00 0.00 0.00 93 1018.4
20260906062003 20 93 0.0 0.0 0.00 0.00 0.00 93 1018.5
20260906061500 20 93 0.0 0.0 0.00 0.00 0.00 92 1018.5
20260906060959 20 93 0.0 0.0 0.00 0.00 0.00 92 1018.3
20260906060456 21 91 0.0 0.0 0.00 0.00 0.00 92 1018.3
20260906055952 21 92 0.0 0.0 0.00 0.00 0.00 92 1018.2
20260906055448 21 83 0.0 0.0 0.00 0.00 0.00 91 1018.1
20260906054943 21 80 0.0 0.0 0.00 0.00 0.00 91 1018.2
20260906054443 21 90 0.0 0.0 0.00 0.00 0.00 91 1018.0
20260906053939 21 92 0.0 0.0 0.00 0.00 0.00 90 1017.9
20260906053435 21 61 1.6 1.6 0.00 0.00 0.00 90 1017.7
20260906052930 21 72 0.0 0.0 0.00 0.00 0.00 90 1017.9
20260906052427 21 71 1.6 3.2 0.00 0.00 0.00 90 1018.0
20260906051923 21 75 1.6 3.2 0.00 0.00 0.00 89 1017.8
20260906051418 21 73 1.6 3.2 0.00 0.00 0.00 89 1017.8
20260906050914 21 67 1.6 3.2 0.00 0.00 0.00 89 1017.6
20260906050413 22 77 0.0 3.2 0.00 0.00 0.00 89 1017.7
20260906045913 22 65 3.2 3.2 0.00 0.00 0.00 89 1017.7
20260906045411 22 82 1.6 3.2 0.00 0.00 0.00 89 1017.8
20260906044908 22 77 0.0 1.6 0.00 0.00 0.00 89 1017.7
20260906044408 22 101 0.0 0.0 0.00 0.00 0.00 88 1017.9
20260906043904 22 89 0.0 1.6 0.00 0.00 0.00 87 1017.8
20260906043400 22 110 0.0 3.2 0.00 0.00 0.00 87 1017.8
20260906042855 22 85 1.6 3.2 0.00 0.00 0.00 87 1017.3
20260906042353 22 77 1.6 4.8 0.00 0.00 0.00 86 1017.4
20260906041849 22 72 3.2 4.8 0.00 0.00 0.00 87 1017.5
20260906041345 22 67 4.8 4.8 0.00 0.00 0.00 87 1017.4
20260906040844 22 79 1.6 3.2 0.00 0.00 0.00 87 1017.5
20260906040340 22 72 1.6 3.2 0.00 0.00 0.00 87 1017.4
20260906035835 22 99 1.6 3.2 0.00 0.00 0.00 87 1017.4
20260906035330 22 94 1.6 4.8 0.00 0.00 0.00 87 1017.3
20260906034826 22 82 1.6 3.2 0.00 0.00 0.00 87 1017.5
20260906034321 22 80 3.2 4.8 0.00 0.00 0.00 87 1017.3
20260906033817 22 65 4.8 4.8 0.00 0.00 0.00 87 1017.3
20260906033315 22 78 3.2 4.8 0.00 0.00 0.00 88 1017.1
20260906032812 22 69 3.2 4.8 0.00 0.00 0.00 90 1017.3
20260906032308 22 74 1.6 3.2 0.00 0.00 0.00 92 1017.2
20260906031803 22 107 0.0 0.0 0.00 0.00 0.00 93 1017.0
20260906031259 22 93 0.0 0.0 0.00 0.00 0.00 93 1017.4
20260906030758 22 66 0.0 0.0 0.00 0.00 0.00 93 1017.3
20260906030253 22 82 0.0 0.0 0.00 0.00 0.00 93 1017.1
20260906025753 22 132 0.0 0.0 0.00 0.00 0.00 93 1017.2
20260906025247 22 153 0.0 0.0 0.00 0.00 0.00 93 1017.1
20260906024746 22 128 0.0 0.0 0.00 0.00 0.00 92 1017.4
20260906024245 22 130 0.0 0.0 0.00 0.00 0.00 92 1017.2
20260906023741 22 162 0.0 0.0 0.00 0.00 0.00 92 1017.3
20260906023236 22 147 0.0 0.0 0.00 0.00 0.00 92 1017.4
20260906022732 22 203 0.0 0.0 0.00 0.00 0.00 92 1017.3
20260906022227 22 122 0.0 0.0 0.00 0.00 0.00 92 1017.2
20260906021723 22 22 0.0 3.2 0.00 0.00 0.00 92 1017.2
20260906021221 22 171 0.0 3.2 0.00 0.00 0.00 92 1017.1
20260906020717 22 223 0.0 0.0 0.00 0.00 0.00 92 1017.4
20260906020212 22 181 0.0 0.0 0.00 0.00 0.00 91 1017.3
20260906015712 22 193 0.0 0.0 0.00 0.00 0.00 91 1017.4
20260906015210 22 48 0.0 3.2 0.00 0.00 0.00 91 1017.1
20260906014710 22 123 0.0 3.2 0.00 0.00 0.00 91 1017.0
20260906014206 21 199 0.0 1.6 0.00 0.00 0.00 91 1016.9
20260906013702 21 51 0.0 4.8 0.00 0.00 0.00 91 1016.7
20260906013157 21 227 0.0 0.0 0.00 0.00 0.00 91 1016.7
20260906012658 21 91 1.6 4.8 0.00 0.00 0.00 90 1016.7
20260906012157 22 33 1.6 3.2 0.00 0.00 0.00 90 1016.6
20260906011653 22 240 3.2 4.8 0.00 0.00 0.00 90 1016.4
20260906011148 22 263 0.0 1.6 0.00 0.00 0.00 90 1016.6
20260906010643 22 248 1.6 6.4 0.00 0.00 0.00 89 1016.7
20260906010139 22 199 0.0 3.2 0.00 0.00 0.00 89 1016.4
20260906005638 22 167 3.2 3.2 0.00 0.00 0.00 89 1016.4
20260906005138 22 243 1.6 3.2 0.00 0.00 0.00 89 1016.5
20260906004637 22 179 1.6 3.2 0.00 0.00 0.00 89 1016.6
20260906004132 22 185 1.6 3.2 0.00 0.00 0.00 89 1016.6
20260906003627 22 71 0.0 4.8 0.00 0.00 0.00 89 1016.6
20260906003123 22 222 1.6 3.2 0.00 0.00 0.00 89 1016.6
20260906002618 22 60 1.6 4.8 0.00 0.00 0.00 89 1016.3
20260906002113 22 131 0.0 1.6 0.00 0.00 0.00 89 1016.5
20260906001608 22 182 1.6 4.8 0.00 0.00 0.00 89 1016.2
20260906001103 22 207 1.6 3.2 0.00 0.00 0.00 89 1016.4
20260906000559 22 134 0.0 1.6 0.00 0.00 0.00 88 1016.2
20260906000054 22 122 0.0 3.2 0.00 0.00 0.00 88 1016.3
20260905235553 22 168 0.0 1.6 0.00 0.00 0.00 87 1016.3
20260905235048 22 30 0.0 0.0 0.00 0.00 0.00 87 1016.3
20260905234543 22 3 0.0 1.6 0.00 0.00 0.00 87 1016.4
20260905234038 23 90 1.6 9.7 0.00 0.00 0.00 87 1016.3
20260905233532 23 68 1.6 6.4 0.00 0.00 0.00 86 1016.1
20260905233032 23 52 0.0 1.6 0.00 0.00 0.00 86 1016.1
20260905232528 23 322 1.6 4.8 0.00 0.00 0.00 85 1016.3
20260905232023 23 141 0.0 6.4 0.00 0.00 0.00 86 1016.1
20260905231518 23 175 0.0 1.6 0.00 0.00 0.00 87 1016.3
20260905231015 23 120 1.6 3.2 0.00 0.00 0.00 86 1016.1
20260905230514 23 291 1.6 3.2 0.00 0.00 0.00 86 1016.1
20260905230012 23 85 1.6 3.2 0.00 0.00 0.00 86 1016.1
20260905225507 23 207 1.6 3.2 0.00 0.00 0.00 85 1016.0
20260905225002 23 276 1.6 4.8 0.00 0.00 0.00 84 1016.1
20260905224457 24 112 0.0 0.0 0.00 0.00 0.00 84 1015.7
20260905223956 23 231 3.2 12.9 0.00 0.00 0.00 84 1015.9
20260905223455 23 245 0.0 3.2 0.00 0.00 0.00 85 1016.1
20260905222950 23 203 0.0 4.8 0.00 0.00 0.00 84 1016.1
20260905222449 23 321 1.6 3.2 0.00 0.00 0.00 85 1016.1
20260905221945 23 26 3.2 4.8 0.00 0.00 0.00 85 1016.0
20260905221441 23 310 4.8 11.3 0.00 0.00 0.00 85 1016.2
20260905220937 23 251 1.6 4.8 0.00 0.00 0.00 84 1016.0
20260905220433 24 284 4.8 6.4 0.00 0.00 0.00 84 1016.1
20260905215932 24 223 0.0 1.6 0.00 0.00 0.00 84 1016.1
20260905215427 24 312 3.2 4.8 0.00 0.00 0.00 84 1016.0
20260905214924 24 96 0.0 4.8 0.00 0.00 0.00 83 1016.0
20260905214420 25 197 0.0 9.7 0.00 0.00 0.00 83 1015.9
20260905213919 24 78 1.6 4.8 0.00 0.00 0.00 83 1015.7
20260905213416 25 238 3.2 4.8 0.00 0.00 0.00 81 1015.8
20260905212911 25 153 1.6 3.2 0.00 0.00 0.00 81 1015.5
20260905212406 26 350 3.2 4.8 0.00 0.00 0.00 79 1015.6
20260905211905 25 176 0.0 1.6 0.00 0.00 0.00 81 1015.5
20260905211401 25 350 3.2 14.5 0.00 0.00 0.00 81 1015.6
20260905210857 25 257 3.2 11.3 0.00 0.00 0.00 81 1015.7
20260905210356 25 293 6.4 6.4 0.00 0.00 0.00 81 1015.6
20260905205856 25 216 0.0 4.8 0.00 0.00 0.00 80 1015.7
20260905205351 25 232 4.8 12.9 0.00 0.00 0.00 81 1015.6
20260905204849 25 13 1.6 6.4 0.00 0.00 0.00 81 1015.5
20260905204346 25 11 3.2 6.4 0.00 0.00 0.00 81 1015.6
20260905203844 25 15 3.2 11.3 0.00 0.00 0.00 82 1015.4
20260905203341 25 292 4.8 9.7 0.00 0.00 0.00 81 1015.8
20260905202836 25 273 1.6 3.2 0.00 0.00 0.00 81 1015.8
20260905202331 26 48 3.2 9.7 0.00 0.00 0.00 79 1015.9
20260905201827 26 334 8.0 9.7 0.00 0.00 0.00 81 1015.9
20260905201322 26 170 3.2 4.8 0.00 0.00 0.00 81 1015.8
20260905200822 26 287 0.0 16.1 0.00 0.00 0.00 80 1015.7
20260905200318 26 26 4.8 6.4 0.00 0.00 0.00 79 1015.6
20260905195815 26 112 3.2 4.8 0.00 0.00 0.00 78 1015.9
20260905195311 26 123 1.6 3.2 0.00 0.00 0.00 79 1015.9
20260905194807 26 318 1.6 9.7 0.00 0.00 0.00 77 1015.8
20260905194306 27 274 3.2 6.4 0.00 0.00 0.00 77 1015.7
20260905193806 27 341 1.6 4.8 0.00 0.00 0.00 78 1015.7
20260905193301 27 162 3.2 11.3 0.00 0.00 0.00 76 1015.7
20260905192756 27 333 6.4 6.4 0.00 0.00 0.00 74 1015.9
20260905192253 28 335 6.4 9.7 0.00 0.00 0.00 73 1015.9
20260905191752 28 292 3.2 4.8 0.00 0.00 0.00 74 1015.9
20260905191250 28 220 1.6 3.2 0.00 0.00 0.00 72 1015.7
20260905190749 28 244 1.6 11.3 0.00 0.00 0.00 72 1016.0
20260905190248 28 240 0.0 1.6 0.00 0.00 0.00 73 1015.7
20260905185747 28 87 3.2 9.7 0.00 0.00 0.00 72 1015.8
20260905185243 28 296 6.4 9.7 0.00 0.00 0.00 73 1016.0
20260905184742 28 280 3.2 9.7 0.00 0.00 0.00 72 1015.8
20260905184241 28 309 3.2 6.4 0.00 0.00 0.00 71 1015.9
20260905183735 28 307 6.4 9.7 0.00 0.00 0.00 71 1015.7
20260905183231 29 246 1.6 4.8 0.00 0.00 0.00 70 1015.8
20260905182730 30 79 3.2 6.4 0.00 0.00 0.00 69 1015.8
20260905182230 30 9 1.6 4.8 0.00 0.00 0.00 70 1015.7
20260905181725 30 4 1.6 4.8 0.00 0.00 0.00 69 1015.9
20260905181224 30 178 1.6 6.4 0.00 0.00 0.00 70 1015.8
20260905180720 30 114 1.6 4.8 0.00 0.00 0.00 70 1015.8
20260905180215 30 327 6.4 6.4 0.00 0.00 0.00 70 1015.8
20260905175714 30 350 3.2 9.7 0.00 0.00 0.00 67 1015.8
20260905175209 30 185 1.6 4.8 0.00 0.00 0.00 68 1015.6
20260905174704 30 109 0.0 3.2 0.00 0.00 0.00 67 1015.8
20260905174200 30 182 0.0 1.6 0.00 0.00 0.00 69 1015.8
20260905173656 30 183 1.6 4.8 0.00 0.00 0.00 68 1015.6
20260905173152 30 227 1.6 3.2 0.00 0.00 0.00 69 1015.8
20260905172651 30 247 0.0 1.6 0.00 0.00 0.00 67 1015.9
20260905172151 30 214 0.0 3.2 0.00 0.00 0.00 70 1015.9
20260905171647 30 324 1.6 3.2 0.00 0.00 0.00 70 1015.7
20260905171142 30 53 1.6 3.2 0.00 0.00 0.00 73 1015.7
20260905170640 28 160 0.0 3.2 0.00 0.00 0.00 75 1016.0
20260905170135 30 47 1.6 6.4 0.00 0.00 0.00 72 1016.0
20260905165629 30 138 0.0 0.0 0.00 0.00 0.00 70 1015.9
20260905165124 30 182 0.0 0.0 0.00 0.00 0.00 74 1015.9
20260905164619 29 314 0.0 0.0 0.00 0.00 0.00 75 1016.0
20260905164118 30 282 0.0 0.0 0.00 0.00 0.00 74 1016.2
20260905163615 30 357 0.0 0.0 0.00 0.00 0.00 75 1016.0
20260905163111 28 91 0.0 0.0 0.00 0.00 0.00 78 1016.2
20260905162607 29 16 0.0 0.0 0.00 0.00 0.00 78 1016.0
20260905162106 29 102 0.0 0.0 0.00 0.00 0.00 78 1015.8
20260905161606 29 241 0.0 0.0 0.00 0.00 0.00 77 1016.1
20260905161104 29 121 0.0 0.0 0.00 0.00 0.00 78 1016.2
20260905160603 28 217 0.0 0.0 0.00 0.00 0.00 81 1016.2
20260905155557 27 125 0.0 0.0 0.00 0.00 0.00 84 1015.9
20260905155055 27 43 0.0 0.0 0.00 0.00 0.00 84 1015.8
20260905154551 27 163 0.0 0.0 0.00 0.00 0.00 84 1015.9
20260905154046 27 73 0.0 0.0 0.00 0.00 0.00 83 1015.8
20260905153542 27 96 0.0 0.0 0.00 0.00 0.00 84 1015.8
20260905153042 27 189 0.0 0.0 0.00 0.00 0.00 86 1016.1
20260905152537 27 339 0.0 0.0 0.00 0.00 0.00 86 1016.0
20260905152032 27 136 0.0 0.0 0.00 0.00 0.00 87 1015.7
20260905151527 27 165 0.0 0.0 0.00 0.00 0.00 86 1015.9
20260905151022 26 300 0.0 0.0 0.00 0.00 0.00 88 1015.8
20260905150517 26 328 0.0 0.0 0.00 0.00 0.00 87 1015.8
20260905150016 26 303 0.0 0.0 0.00 0.00 0.00 87 1015.7
20260905145515 26 232 0.0 0.0 0.00 0.00 0.00 87 1015.6
20260905145014 27 299 0.0 0.0 0.00 0.00 0.00 86 1015.4
20260905144510 27 232 0.0 0.0 0.00 0.00 0.00 86 1015.4
20260905144008 27 211 0.0 0.0 0.00 0.00 0.00 85 1015.5
20260905143508 27 216 0.0 0.0 0.00 0.00 0.00 84 1015.5
20260905143003 28 47 0.0 0.0 0.00 0.00 0.00 83 1015.1
20260905142501 28 101 0.0 0.0 0.00 0.00 0.00 82 1015.1
20260905141957 28 64 0.0 0.0 0.00 0.00 0.00 82 1015.4
20260905141451 28 194 0.0 0.0 0.00 0.00 0.00 84 1015.5
20260905140948 28 123 0.0 0.0 0.00 0.00 0.00 85 1015.5
20260905140443 28 88 0.0 0.0 0.00 0.00 0.00 86 1015.4
20260905135942 28 213 0.0 0.0 0.00 0.00 0.00 86 1015.6
20260905135438 28 165 0.0 0.0 0.00 0.00 0.00 86 1015.4
20260905134933 27 158 0.0 0.0 0.00 0.00 0.00 88 1015.1
20260905134432 27 144 0.0 0.0 0.00 0.00 0.00 91 1015.1
20260905133932 26 114 0.0 0.0 0.00 0.00 0.00 92 1015.2
20260905133431 26 127 0.0 0.0 0.00 0.00 0.00 94 1015.1
20260905132932 26 122 0.0 0.0 0.00 0.00 0.00 94 1015.0
20260905132427 26 129 0.0 0.0 0.00 0.00 0.00 94 1015.2
20260905131922 25 123 0.0 0.0 0.00 0.00 0.00 94 1015.4
20260905131418 25 126 0.0 0.0 0.00 0.00 0.00 95 1015.4
20260905130918 25 145 0.0 0.0 0.00 0.00 0.00 96 1015.1
20260905130418 25 184 0.0 0.0 0.00 0.00 0.00 96 1014.9
20260905125917 25 105 0.0 0.0 0.00 0.00 0.00 97 1015.0
20260905125413 25 129 0.0 0.0 0.00 0.00 0.00 97 1015.0
20260905124908 25 120 0.0 0.0 0.00 0.00 0.00 97 1014.8
20260905124405 25 114 0.0 0.0 0.00 0.00 0.00 98 1015.0
20260905123904 25 93 0.0 0.0 0.00 0.00 0.00 98 1014.8
20260905123401 25 109 0.0 0.0 0.00 0.00 0.00 98 1014.7
20260905122856 24 113 0.0 0.0 0.00 0.00 0.00 98 1015.0
20260905122355 24 131 0.0 0.0 0.00 0.00 0.00 98 1014.6
20260905121851 23 129 0.0 0.0 0.00 0.00 0.00 98 1014.7
20260905121347 23 126 0.0 0.0 0.00 0.00 0.00 98 1014.8
20260905120845 23 108 0.0 0.0 0.00 0.00 0.00 98 1014.6
20260905120340 23 85 0.0 0.0 0.00 0.00 0.00 98 1014.4
20260905115835 23 134 0.0 0.0 0.00 0.00 0.00 98 1014.6
20260905115335 23 120 0.0 0.0 0.00 0.00 0.00 98 1014.3
20260905114829 23 150 0.0 0.0 0.00 0.00 0.00 98 1014.5
20260905114328 23 152 0.0 0.0 0.00 0.00 0.00 98 1014.4
20260905113828 23 152 0.0 0.0 0.00 0.00 0.00 98 1014.1
20260905113324 23 117 0.0 0.0 0.00 0.00 0.00 98 1014.2
20260905112819 23 132 0.0 0.0 0.00 0.00 0.00 98 1014.0
20260905112313 23 129 0.0 0.0 0.00 0.00 0.00 98 1014.2
20260905111808 23 179 0.0 0.0 0.00 0.00 0.00 98 1014.1
20260905111303 23 179 0.0 0.0 0.00 0.00 0.00 98 1014.1
20260905110803 23 179 0.0 0.0 0.00 0.00 0.00 98 1014.0
20260905110302 23 179 0.0 0.0 0.00 0.00 0.00 98 1014.0
20260905105758 23 180 0.0 0.0 0.00 0.00 0.00 98 1014.1
20260905105257 23 180 0.0 0.0 0.00 0.00 0.00 98 1014.0
20260905104751 23 177 0.0 0.0 0.00 0.00 0.00 98 1014.1
20260905104248 23 177 0.0 0.0 0.00 0.00 0.00 98 1014.3
20260905103747 23 177 0.0 0.0 0.00 0.00 0.00 98 1014.3
20260905103243 23 177 0.0 0.0 0.00 0.00 0.00 98 1014.4
20260905102738 23 181 0.0 0.0 0.00 0.00 0.00 98 1014.1
20260905102235 23 149 0.0 0.0 0.00 0.00 0.00 98 1014.1
20260905101734 23 149 0.0 0.0 0.00 0.00 0.00 98 1014.2
20260905101232 23 148 0.0 0.0 0.00 0.00 0.00 98 1014.1
20260905100728 23 163 0.0 0.0 0.00 0.00 0.00 98 1014.0